Terminal Aerodrome Forecast
Issued by NWS

Home | Current Version | Previous Version | Text Only | Print | Product List | Glossary On
Versions: 1 2 3 4 5 6 7 8 9 10 11 12
000
FTUS42 TJSJ 010500
TAFKPK
TAF
TKPK 010524Z 0106/0206 09006KT P6SM SCT018
     FM011330 08011KT P6SM VCSH SCT022
     FM012300 09009KT P6SM FEW021
      AMD NOT SKED TIL 011100=

USA.gov is the U.S. government's official web portal to all federal, state and local government web resources and services.